owner,sensor,date,latitude,longitude,relative_humidity,qcFlag 
DISL,ioos:station:DISL:KATA:1,2012-03-01T00:00:00Z,30.2583,-88.2131,97.4,1111122 
DISL,ioos:station:DISL:KATA:1,2012-03-01T00:30:00Z,30.2583,-88.2131,97.4,1111122 
DISL,ioos:station:DISL:KATA:1,2012-03-01T01:00:00Z,30.2583,-88.2131,97.4,1111122 
DISL,ioos:station:DISL:KATA:1,2012-03-01T01:30:00Z,30.2583,-88.2131,96.9,1111122 
DISL,ioos:station:DISL:KATA:1,2012-03-01T02:00:00Z,30.2583,-88.2131,97.3,1111122 
DISL,ioos:station:DISL:KATA:1,2012-03-01T02:30:00Z,30.2583,-88.2131,97.4,1111122 
DISL,ioos:station:DISL:KATA:1,2012-03-01T03:00:00Z,30.2583,-88.2131,97.6,1111122 
DISL,ioos:station:DISL:KATA:1,2012-03-01T03:30:00Z,30.2583,-88.2131,97.6,1111122 
DISL,ioos:station:DISL:KATA:1,2012-03-01T04:00:00Z,30.2583,-88.2131,97.8,1111122 
DISL,ioos:station:DISL:KATA:1,2012-03-01T04:30:00Z,30.2583,-88.2131,97.8,1111122 
DISL,ioos:station:DISL:KATA:1,2012-03-01T05:00:00Z,30.2583,-88.2131,97.8,1111122 
DISL,ioos:station:DISL:KATA:1,2012-03-01T05:30:00Z,30.2583,-88.2131,98.0,1111122 
DISL,ioos:station:DISL:KATA:1,2012-03-01T06:00:00Z,30.2583,-88.2131,98.0,1111122 
DISL,ioos:station:DISL:KATA:1,2012-03-01T06:30:00Z,30.2583,-88.2131,98.2,1111122 
DISL,ioos:station:DISL:KATA:1,2012-03-01T07:00:00Z,30.2583,-88.2131,98.4,1111122 
DISL,ioos:station:DISL:KATA:1,2012-03-01T07:30:00Z,30.2583,-88.2131,98.2,1111122 
DISL,ioos:station:DISL:KATA:1,2012-03-01T08:00:00Z,30.2583,-88.2131,98.3,1111122 
DISL,ioos:station:DISL:KATA:1,2012-03-01T08:30:00Z,30.2583,-88.2131,98.2,1111122 
DISL,ioos:station:DISL:KATA:1,2012-03-01T09:00:00Z,30.2583,-88.2131,98.5,1111122 
DISL,ioos:station:DISL:KATA:1,2012-03-01T09:30:00Z,30.2583,-88.2131,98.6,1111122 
DISL,ioos:station:DISL:KATA:1,2012-03-01T10:00:00Z,30.2583,-88.2131,98.5,1111122 
DISL,ioos:station:DISL:KATA:1,2012-03-01T10:30:00Z,30.2583,-88.2131,98.5,1111122 
DISL,ioos:station:DISL:KATA:1,2012-03-01T11:00:00Z,30.2583,-88.2131,98.6,1111122 
DISL,ioos:station:DISL:KATA:1,2012-03-01T11:30:00Z,30.2583,-88.2131,98.6,1111122 
DISL,ioos:station:DISL:KATA:1,2012-03-01T12:00:00Z,30.2583,-88.2131,98.6,1111122 
DISL,ioos:station:DISL:KATA:1,2012-03-01T12:30:00Z,30.2583,-88.2131,98.6,1111122 
DISL,ioos:station:DISL:KATA:1,2012-03-01T13:00:00Z,30.2583,-88.2131,98.6,1111122 
DISL,ioos:station:DISL:KATA:1,2012-03-01T13:30:00Z,30.2583,-88.2131,98.6,1111122 
DISL,ioos:station:DISL:KATA:1,2012-03-01T14:00:00Z,30.2583,-88.2131,98.6,1111122 
DISL,ioos:station:DISL:KATA:1,2012-03-01T14:30:00Z,30.2583,-88.2131,98.6,1111122 
DISL,ioos:station:DISL:KATA:1,2012-03-01T15:00:00Z,30.2583,-88.2131,98.5,1111122 
DISL,ioos:station:DISL:KATA:1,2012-03-01T15:30:00Z,30.2583,-88.2131,98.4,1111122 
DISL,ioos:station:DISL:KATA:1,2012-03-01T16:00:00Z,30.2583,-88.2131,98.4,1111122 
DISL,ioos:station:DISL:KATA:1,2012-03-01T16:30:00Z,30.2583,-88.2131,98.4,1111122 
DISL,ioos:station:DISL:KATA:1,2012-03-01T17:00:00Z,30.2583,-88.2131,98.5,1111122 
DISL,ioos:station:DISL:KATA:1,2012-03-01T17:30:00Z,30.2583,-88.2131,98.1,1111122 
DISL,ioos:station:DISL:KATA:1,2012-03-01T18:00:00Z,30.2583,-88.2131,96.8,1111122 
DISL,ioos:station:DISL:KATA:1,2012-03-01T18:30:00Z,30.2583,-88.2131,95.4,1111122 
DISL,ioos:station:DISL:KATA:1,2012-03-01T19:00:00Z,30.2583,-88.2131,95.0,1111122 
DISL,ioos:station:DISL:KATA:1,2012-03-01T19:30:00Z,30.2583,-88.2131,95.9,1111122 
DISL,ioos:station:DISL:KATA:1,2012-03-01T20:00:00Z,30.2583,-88.2131,97.1,1111122 
DISL,ioos:station:DISL:KATA:1,2012-03-01T20:30:00Z,30.2583,-88.2131,98.1,1111122 
DISL,ioos:station:DISL:KATA:1,2012-03-01T21:00:00Z,30.2583,-88.2131,98.2,1111122 
DISL,ioos:station:DISL:KATA:1,2012-03-01T21:30:00Z,30.2583,-88.2131,98.2,1111122 
DISL,ioos:station:DISL:KATA:1,2012-03-01T22:00:00Z,30.2583,-88.2131,98.5,1111122 
DISL,ioos:station:DISL:KATA:1,2012-03-01T22:30:00Z,30.2583,-88.2131,98.6,1111122 
DISL,ioos:station:DISL:KATA:1,2012-03-01T23:00:00Z,30.2583,-88.2131,98.6,1111122 
DISL,ioos:station:DISL:KATA:1,2012-03-01T23:30:00Z,30.2583,-88.2131,98.4,1111122 
DISL,ioos:station:DISL:KATA:1,2012-03-02T00:00:00Z,30.2583,-88.2131,98.2,1111122 
DISL,ioos:station:DISL:KATA:1,2012-03-02T00:30:00Z,30.2583,-88.2131,98.0,1111122 
DISL,ioos:station:DISL:KATA:1,2012-03-02T01:00:00Z,30.2583,-88.2131,97.9,1111122 
DISL,ioos:station:DISL:KATA:1,2012-03-02T01:30:00Z,30.2583,-88.2131,98.0,1111122 
DISL,ioos:station:DISL:KATA:1,2012-03-02T02:00:00Z,30.2583,-88.2131,98.1,1111122 
DISL,ioos:station:DISL:KATA:1,2012-03-02T02:30:00Z,30.2583,-88.2131,97.7,1111122 
DISL,ioos:station:DISL:KATA:1,2012-03-02T03:00:00Z,30.2583,-88.2131,97.6,1111122 
DISL,ioos:station:DISL:KATA:1,2012-03-02T03:30:00Z,30.2583,-88.2131,97.8,1111122 
DISL,ioos:station:DISL:KATA:1,2012-03-02T04:00:00Z,30.2583,-88.2131,97.9,1111122 
DISL,ioos:station:DISL:KATA:1,2012-03-02T04:30:00Z,30.2583,-88.2131,98.0,1111122 
DISL,ioos:station:DISL:KATA:1,2012-03-02T05:00:00Z,30.2583,-88.2131,97.8,1111122 
DISL,ioos:station:DISL:KATA:1,2012-03-02T05:30:00Z,30.2583,-88.2131,97.7,1111122 
DISL,ioos:station:DISL:KATA:1,2012-03-02T06:00:00Z,30.2583,-88.2131,98.1,1111122 
DISL,ioos:station:DISL:KATA:1,2012-03-02T06:30:00Z,30.2583,-88.2131,98.5,1111122 
DISL,ioos:station:DISL:KATA:1,2012-03-02T07:00:00Z,30.2583,-88.2131,98.5,1111122 
DISL,ioos:station:DISL:KATA:1,2012-03-02T07:30:00Z,30.2583,-88.2131,98.3,1111122 
DISL,ioos:station:DISL:KATA:1,2012-03-02T08:00:00Z,30.2583,-88.2131,98.3,1111122 
DISL,ioos:station:DISL:KATA:1,2012-03-02T08:30:00Z,30.2583,-88.2131,98.4,1111122 
DISL,ioos:station:DISL:KATA:1,2012-03-02T09:00:00Z,30.2583,-88.2131,98.2,1111122 
DISL,ioos:station:DISL:KATA:1,2012-03-02T09:30:00Z,30.2583,-88.2131,98.2,1111122 
DISL,ioos:station:DISL:KATA:1,2012-03-02T10:00:00Z,30.2583,-88.2131,98.2,1111122 
DISL,ioos:station:DISL:KATA:1,2012-03-02T10:30:00Z,30.2583,-88.2131,98.1,1111122 
DISL,ioos:station:DISL:KATA:1,2012-03-02T11:00:00Z,30.2583,-88.2131,98.1,1111122 
DISL,ioos:station:DISL:KATA:1,2012-03-02T11:30:00Z,30.2583,-88.2131,98.3,1111122 
DISL,ioos:station:DISL:KATA:1,2012-03-02T12:00:00Z,30.2583,-88.2131,98.4,1111122 
DISL,ioos:station:DISL:KATA:1,2012-03-02T12:30:00Z,30.2583,-88.2131,98.6,1111122 
DISL,ioos:station:DISL:KATA:1,2012-03-02T13:00:00Z,30.2583,-88.2131,98.8,1111122 
DISL,ioos:station:DISL:KATA:1,2012-03-02T13:30:00Z,30.2583,-88.2131,98.8,1111122 
DISL,ioos:station:DISL:KATA:1,2012-03-02T14:00:00Z,30.2583,-88.2131,98.8,1111122 
DISL,ioos:station:DISL:KATA:1,2012-03-02T14:30:00Z,30.2583,-88.2131,98.8,1111122 
DISL,ioos:station:DISL:KATA:1,2012-03-02T15:00:00Z,30.2583,-88.2131,98.8,1111122 
DISL,ioos:station:DISL:KATA:1,2012-03-02T15:30:00Z,30.2583,-88.2131,98.8,1111122 
DISL,ioos:station:DISL:KATA:1,2012-03-02T16:00:00Z,30.2583,-88.2131,98.7,1111122 
DISL,ioos:station:DISL:KATA:1,2012-03-02T16:30:00Z,30.2583,-88.2131,98.5,1111122 
DISL,ioos:station:DISL:KATA:1,2012-03-02T17:00:00Z,30.2583,-88.2131,98.0,1111122 
DISL,ioos:station:DISL:KATA:1,2012-03-02T17:30:00Z,30.2583,-88.2131,97.6,1111122 
DISL,ioos:station:DISL:KATA:1,2012-03-02T18:00:00Z,30.2583,-88.2131,97.2,1111122 
DISL,ioos:station:DISL:KATA:1,2012-03-02T18:30:00Z,30.2583,-88.2131,97.2,1111122 
DISL,ioos:station:DISL:KATA:1,2012-03-02T19:00:00Z,30.2583,-88.2131,97.0,1111122 
DISL,ioos:station:DISL:KATA:1,2012-03-02T19:30:00Z,30.2583,-88.2131,96.5,1111122 
DISL,ioos:station:DISL:KATA:1,2012-03-02T20:00:00Z,30.2583,-88.2131,95.8,1111122 
DISL,ioos:station:DISL:KATA:1,2012-03-02T20:30:00Z,30.2583,-88.2131,95.9,1111122 
DISL,ioos:station:DISL:KATA:1,2012-03-02T21:00:00Z,30.2583,-88.2131,96.2,1111122 
DISL,ioos:station:DISL:KATA:1,2012-03-02T21:30:00Z,30.2583,-88.2131,96.2,1111122 
DISL,ioos:station:DISL:KATA:1,2012-03-02T22:00:00Z,30.2583,-88.2131,93.8,1111122 
DISL,ioos:station:DISL:KATA:1,2012-03-02T22:30:00Z,30.2583,-88.2131,93.2,1111122 
DISL,ioos:station:DISL:KATA:1,2012-03-02T23:00:00Z,30.2583,-88.2131,93.6,1111122 
DISL,ioos:station:DISL:KATA:1,2012-03-02T23:30:00Z,30.2583,-88.2131,95.2,1111122 
DISL,ioos:station:DISL:KATA:1,2012-03-03T00:00:00Z,30.2583,-88.2131,96.0,1111122 
DISL,ioos:station:DISL:KATA:1,2012-03-03T00:30:00Z,30.2583,-88.2131,96.0,1111122 
DISL,ioos:station:DISL:KATA:1,2012-03-03T01:00:00Z,30.2583,-88.2131,96.8,1111122 
DISL,ioos:station:DISL:KATA:1,2012-03-03T01:30:00Z,30.2583,-88.2131,97.0,1111122 
DISL,ioos:station:DISL:KATA:1,2012-03-03T02:00:00Z,30.2583,-88.2131,97.0,1111122 
DISL,ioos:station:DISL:KATA:1,2012-03-03T02:30:00Z,30.2583,-88.2131,97.5,1111122 
DISL,ioos:station:DISL:KATA:1,2012-03-03T03:00:00Z,30.2583,-88.2131,97.7,1111122 
DISL,ioos:station:DISL:KATA:1,2012-03-03T03:30:00Z,30.2583,-88.2131,97.8,1111122 
DISL,ioos:station:DISL:KATA:1,2012-03-03T04:00:00Z,30.2583,-88.2131,97.8,1111122 
DISL,ioos:station:DISL:KATA:1,2012-03-03T04:30:00Z,30.2583,-88.2131,98.0,1111122 
DISL,ioos:station:DISL:KATA:1,2012-03-03T05:00:00Z,30.2583,-88.2131,98.3,1111122 
DISL,ioos:station:DISL:KATA:1,2012-03-03T05:30:00Z,30.2583,-88.2131,98.3,1111122 
DISL,ioos:station:DISL:KATA:1,2012-03-03T06:00:00Z,30.2583,-88.2131,97.4,1111122 
DISL,ioos:station:DISL:KATA:1,2012-03-03T06:30:00Z,30.2583,-88.2131,96.8,1111122 
DISL,ioos:station:DISL:KATA:1,2012-03-03T07:00:00Z,30.2583,-88.2131,96.3,1111122 
DISL,ioos:station:DISL:KATA:1,2012-03-03T07:30:00Z,30.2583,-88.2131,96.6,1111122 
DISL,ioos:station:DISL:KATA:1,2012-03-03T08:00:00Z,30.2583,-88.2131,97.0,1111122 
DISL,ioos:station:DISL:KATA:1,2012-03-03T08:30:00Z,30.2583,-88.2131,97.5,1111122 
DISL,ioos:station:DISL:KATA:1,2012-03-03T09:00:00Z,30.2583,-88.2131,98.0,1111122 
DISL,ioos:station:DISL:KATA:1,2012-03-03T09:30:00Z,30.2583,-88.2131,98.1,1111122 
DISL,ioos:station:DISL:KATA:1,2012-03-03T10:00:00Z,30.2583,-88.2131,98.2,1111122 
DISL,ioos:station:DISL:KATA:1,2012-03-03T10:30:00Z,30.2583,-88.2131,98.3,1111122 
DISL,ioos:station:DISL:KATA:1,2012-03-03T11:00:00Z,30.2583,-88.2131,98.4,1111122 
DISL,ioos:station:DISL:KATA:1,2012-03-03T11:30:00Z,30.2583,-88.2131,98.1,1111122 
DISL,ioos:station:DISL:KATA:1,2012-03-03T12:00:00Z,30.2583,-88.2131,98.0,1111122 
DISL,ioos:station:DISL:KATA:1,2012-03-03T12:30:00Z,30.2583,-88.2131,98.2,1111122 
DISL,ioos:station:DISL:KATA:1,2012-03-03T13:00:00Z,30.2583,-88.2131,94.3,1111122 
DISL,ioos:station:DISL:KATA:1,2012-03-03T13:30:00Z,30.2583,-88.2131,95.3,1111122 
DISL,ioos:station:DISL:KATA:1,2012-03-03T14:00:00Z,30.2583,-88.2131,87.6,1111122 
DISL,ioos:station:DISL:KATA:1,2012-03-03T14:30:00Z,30.2583,-88.2131,87.5,1111122 
DISL,ioos:station:DISL:KATA:1,2012-03-03T15:00:00Z,30.2583,-88.2131,86.8,1111122 
DISL,ioos:station:DISL:KATA:1,2012-03-03T15:30:00Z,30.2583,-88.2131,85.3,1111122 
DISL,ioos:station:DISL:KATA:1,2012-03-03T16:00:00Z,30.2583,-88.2131,83.7,1111122 
DISL,ioos:station:DISL:KATA:1,2012-03-03T16:30:00Z,30.2583,-88.2131,87.6,1111122 
DISL,ioos:station:DISL:KATA:1,2012-03-03T17:00:00Z,30.2583,-88.2131,86.8,1111122 
DISL,ioos:station:DISL:KATA:1,2012-03-03T17:30:00Z,30.2583,-88.2131,81.5,1111122 
DISL,ioos:station:DISL:KATA:1,2012-03-03T18:00:00Z,30.2583,-88.2131,78.74,1111122 
DISL,ioos:station:DISL:KATA:1,2012-03-03T18:30:00Z,30.2583,-88.2131,85.0,1111122 
DISL,ioos:station:DISL:KATA:1,2012-03-03T19:00:00Z,30.2583,-88.2131,86.6,1111122 
DISL,ioos:station:DISL:KATA:1,2012-03-03T19:30:00Z,30.2583,-88.2131,86.4,1111122 
DISL,ioos:station:DISL:KATA:1,2012-03-03T20:00:00Z,30.2583,-88.2131,83.7,1111122 
DISL,ioos:station:DISL:KATA:1,2012-03-03T20:30:00Z,30.2583,-88.2131,81.7,1111122 
DISL,ioos:station:DISL:KATA:1,2012-03-03T21:00:00Z,30.2583,-88.2131,80.1,1111122 
DISL,ioos:station:DISL:KATA:1,2012-03-03T21:30:00Z,30.2583,-88.2131,75.86,1111122 
DISL,ioos:station:DISL:KATA:1,2012-03-03T22:00:00Z,30.2583,-88.2131,73.58,1111122 
DISL,ioos:station:DISL:KATA:1,2012-03-03T22:30:00Z,30.2583,-88.2131,68.39,1111122 
DISL,ioos:station:DISL:KATA:1,2012-03-03T23:00:00Z,30.2583,-88.2131,74.94,1111122 
DISL,ioos:station:DISL:KATA:1,2012-03-03T23:30:00Z,30.2583,-88.2131,63.4,1111122 
DISL,ioos:station:DISL:KATA:1,2012-03-04T00:00:00Z,30.2583,-88.2131,61.66,1111122 
DISL,ioos:station:DISL:KATA:1,2012-03-04T00:30:00Z,30.2583,-88.2131,69.81,1111122 
DISL,ioos:station:DISL:KATA:1,2012-03-04T01:00:00Z,30.2583,-88.2131,63.97,1111122 
DISL,ioos:station:DISL:KATA:1,2012-03-04T01:30:00Z,30.2583,-88.2131,60.11,1111122 
DISL,ioos:station:DISL:KATA:1,2012-03-04T02:00:00Z,30.2583,-88.2131,59.64,1111122 
DISL,ioos:station:DISL:KATA:1,2012-03-04T02:30:00Z,30.2583,-88.2131,57.16,1111122 
DISL,ioos:station:DISL:KATA:1,2012-03-04T03:00:00Z,30.2583,-88.2131,59.46,1111122 
DISL,ioos:station:DISL:KATA:1,2012-03-04T03:30:00Z,30.2583,-88.2131,59.84,1111122 
DISL,ioos:station:DISL:KATA:1,2012-03-04T04:00:00Z,30.2583,-88.2131,58.99,1111122 
DISL,ioos:station:DISL:KATA:1,2012-03-04T04:30:00Z,30.2583,-88.2131,64.09,1111122 
DISL,ioos:station:DISL:KATA:1,2012-03-04T05:00:00Z,30.2583,-88.2131,57.19,1111122 
DISL,ioos:station:DISL:KATA:1,2012-03-04T05:30:00Z,30.2583,-88.2131,60.42,1111122 
DISL,ioos:station:DISL:KATA:1,2012-03-04T06:00:00Z,30.2583,-88.2131,64.06,1111122 
DISL,ioos:station:DISL:KATA:1,2012-03-04T06:30:00Z,30.2583,-88.2131,56.55,1111122 
DISL,ioos:station:DISL:KATA:1,2012-03-04T07:00:00Z,30.2583,-88.2131,62.16,1111122 
DISL,ioos:station:DISL:KATA:1,2012-03-04T07:30:00Z,30.2583,-88.2131,64.03,1111122 
DISL,ioos:station:DISL:KATA:1,2012-03-04T08:00:00Z,30.2583,-88.2131,64.23,1111122 
DISL,ioos:station:DISL:KATA:1,2012-03-04T08:30:00Z,30.2583,-88.2131,63.18,1111122 
DISL,ioos:station:DISL:KATA:1,2012-03-04T09:00:00Z,30.2583,-88.2131,59.51,1111122 
DISL,ioos:station:DISL:KATA:1,2012-03-04T09:30:00Z,30.2583,-88.2131,58.42,1111122 
DISL,ioos:station:DISL:KATA:1,2012-03-04T10:00:00Z,30.2583,-88.2131,63.32,1111122 
DISL,ioos:station:DISL:KATA:1,2012-03-04T10:30:00Z,30.2583,-88.2131,63.18,1111122 
DISL,ioos:station:DISL:KATA:1,2012-03-04T11:00:00Z,30.2583,-88.2131,58.8,1111122 
DISL,ioos:station:DISL:KATA:1,2012-03-04T11:30:00Z,30.2583,-88.2131,58.53,1111122 
DISL,ioos:station:DISL:KATA:1,2012-03-04T12:00:00Z,30.2583,-88.2131,64.74,1111122 
DISL,ioos:station:DISL:KATA:1,2012-03-04T12:30:00Z,30.2583,-88.2131,66.79,1111122 
DISL,ioos:station:DISL:KATA:1,2012-03-04T13:00:00Z,30.2583,-88.2131,61.52,1111122 
DISL,ioos:station:DISL:KATA:1,2012-03-04T13:30:00Z,30.2583,-88.2131,64.68,1111122 
DISL,ioos:station:DISL:KATA:1,2012-03-04T14:00:00Z,30.2583,-88.2131,65.93,1111122 
DISL,ioos:station:DISL:KATA:1,2012-03-04T14:30:00Z,30.2583,-88.2131,63.99,1111122 
DISL,ioos:station:DISL:KATA:1,2012-03-04T15:00:00Z,30.2583,-88.2131,55.8,1111122 
DISL,ioos:station:DISL:KATA:1,2012-03-04T15:30:00Z,30.2583,-88.2131,41.46,1111122 
DISL,ioos:station:DISL:KATA:1,2012-03-04T16:00:00Z,30.2583,-88.2131,37.96,1111122 
DISL,ioos:station:DISL:KATA:1,2012-03-04T16:30:00Z,30.2583,-88.2131,35.98,1111122 
DISL,ioos:station:DISL:KATA:1,2012-03-04T17:00:00Z,30.2583,-88.2131,39.34,1111122 
DISL,ioos:station:DISL:KATA:1,2012-03-04T17:30:00Z,30.2583,-88.2131,37.2,1111122 
DISL,ioos:station:DISL:KATA:1,2012-03-04T18:00:00Z,30.2583,-88.2131,35.06,1111122 
DISL,ioos:station:DISL:KATA:1,2012-03-04T18:30:00Z,30.2583,-88.2131,29.74,1111122 
DISL,ioos:station:DISL:KATA:1,2012-03-04T19:00:00Z,30.2583,-88.2131,28.85,1111122 
DISL,ioos:station:DISL:KATA:1,2012-03-04T19:30:00Z,30.2583,-88.2131,22.98,1111122 
DISL,ioos:station:DISL:KATA:1,2012-03-04T20:00:00Z,30.2583,-88.2131,38.49,1111122 
DISL,ioos:station:DISL:KATA:1,2012-03-04T20:30:00Z,30.2583,-88.2131,44.16,1111122 
DISL,ioos:station:DISL:KATA:1,2012-03-04T21:00:00Z,30.2583,-88.2131,34.45,1111122 
DISL,ioos:station:DISL:KATA:1,2012-03-04T21:30:00Z,30.2583,-88.2131,42.63,1111122 
DISL,ioos:station:DISL:KATA:1,2012-03-04T22:00:00Z,30.2583,-88.2131,32.21,1111122 
DISL,ioos:station:DISL:KATA:1,2012-03-04T22:30:00Z,30.2583,-88.2131,38.97,1111122 
DISL,ioos:station:DISL:KATA:1,2012-03-04T23:00:00Z,30.2583,-88.2131,46.61,1111122 
DISL,ioos:station:DISL:KATA:1,2012-03-04T23:30:00Z,30.2583,-88.2131,42.33,1111122 
DISL,ioos:station:DISL:KATA:1,2012-03-05T00:00:00Z,30.2583,-88.2131,49.66,1111122 
DISL,ioos:station:DISL:KATA:1,2012-03-05T00:30:00Z,30.2583,-88.2131,49.66,1111122 
DISL,ioos:station:DISL:KATA:1,2012-03-05T01:00:00Z,30.2583,-88.2131,52.14,1111122 
DISL,ioos:station:DISL:KATA:1,2012-03-05T01:30:00Z,30.2583,-88.2131,49.05,1111122 
DISL,ioos:station:DISL:KATA:1,2012-03-05T02:00:00Z,30.2583,-88.2131,44.57,1111122 
DISL,ioos:station:DISL:KATA:1,2012-03-05T02:30:00Z,30.2583,-88.2131,48.88,1111122 
DISL,ioos:station:DISL:KATA:1,2012-03-05T03:00:00Z,30.2583,-88.2131,54.92,1111122 
DISL,ioos:station:DISL:KATA:1,2012-03-05T03:30:00Z,30.2583,-88.2131,54.72,1111122 
DISL,ioos:station:DISL:KATA:1,2012-03-05T04:00:00Z,30.2583,-88.2131,45.52,1111122 
DISL,ioos:station:DISL:KATA:1,2012-03-05T04:30:00Z,30.2583,-88.2131,59.16,1111122 
DISL,ioos:station:DISL:KATA:1,2012-03-05T05:00:00Z,30.2583,-88.2131,61.3,1111122 
DISL,ioos:station:DISL:KATA:1,2012-03-05T05:30:00Z,30.2583,-88.2131,63.51,1111122 
DISL,ioos:station:DISL:KATA:1,2012-03-05T06:00:00Z,30.2583,-88.2131,61.64,1111122 
DISL,ioos:station:DISL:KATA:1,2012-03-05T06:30:00Z,30.2583,-88.2131,63.95,1111122 
DISL,ioos:station:DISL:KATA:1,2012-03-05T07:00:00Z,30.2583,-88.2131,68.57,1111122 
DISL,ioos:station:DISL:KATA:1,2012-03-05T07:30:00Z,30.2583,-88.2131,62.39,1111122 
DISL,ioos:station:DISL:KATA:1,2012-03-05T08:00:00Z,30.2583,-88.2131,65.99,1111122 
DISL,ioos:station:DISL:KATA:1,2012-03-05T08:30:00Z,30.2583,-88.2131,67.48,1111122 
DISL,ioos:station:DISL:KATA:1,2012-03-05T09:00:00Z,30.2583,-88.2131,68.09,1111122 
DISL,ioos:station:DISL:KATA:1,2012-03-05T09:30:00Z,30.2583,-88.2131,66.16,1111122 
DISL,ioos:station:DISL:KATA:1,2012-03-05T10:00:00Z,30.2583,-88.2131,61.17,1111122 
DISL,ioos:station:DISL:KATA:1,2012-03-05T10:30:00Z,30.2583,-88.2131,66.12,1111122 
DISL,ioos:station:DISL:KATA:1,2012-03-05T11:00:00Z,30.2583,-88.2131,66.6,1111122 
DISL,ioos:station:DISL:KATA:1,2012-03-05T11:30:00Z,30.2583,-88.2131,65.51,1111122 
DISL,ioos:station:DISL:KATA:1,2012-03-05T12:00:00Z,30.2583,-88.2131,62.66,1111122 
DISL,ioos:station:DISL:KATA:1,2012-03-05T12:30:00Z,30.2583,-88.2131,68.53,1111122 
DISL,ioos:station:DISL:KATA:1,2012-03-05T13:00:00Z,30.2583,-88.2131,66.53,1111122 
DISL,ioos:station:DISL:KATA:1,2012-03-05T13:30:00Z,30.2583,-88.2131,65.65,1111122 
DISL,ioos:station:DISL:KATA:1,2012-03-05T14:00:00Z,30.2583,-88.2131,64.97,1111122 
DISL,ioos:station:DISL:KATA:1,2012-03-05T14:30:00Z,30.2583,-88.2131,62.9,1111122 
DISL,ioos:station:DISL:KATA:1,2012-03-05T15:00:00Z,30.2583,-88.2131,63.4,1111122 
DISL,ioos:station:DISL:KATA:1,2012-03-05T15:30:00Z,30.2583,-88.2131,69.4,1111122 
DISL,ioos:station:DISL:KATA:1,2012-03-05T16:00:00Z,30.2583,-88.2131,70.73,1111122 
DISL,ioos:station:DISL:KATA:1,2012-03-05T16:30:00Z,30.2583,-88.2131,69.0,1111122 
DISL,ioos:station:DISL:KATA:1,2012-03-05T17:00:00Z,30.2583,-88.2131,69.16,1111122 
DISL,ioos:station:DISL:KATA:1,2012-03-05T17:30:00Z,30.2583,-88.2131,68.17,1111122 
DISL,ioos:station:DISL:KATA:1,2012-03-05T18:00:00Z,30.2583,-88.2131,68.54,1111122 
DISL,ioos:station:DISL:KATA:1,2012-03-05T18:30:00Z,30.2583,-88.2131,64.0,1111122 
DISL,ioos:station:DISL:KATA:1,2012-03-05T19:00:00Z,30.2583,-88.2131,66.64,1111122 
DISL,ioos:station:DISL:KATA:1,2012-03-05T19:30:00Z,30.2583,-88.2131,64.4,1111122 
DISL,ioos:station:DISL:KATA:1,2012-03-05T20:00:00Z,30.2583,-88.2131,66.88,1111122 
DISL,ioos:station:DISL:KATA:1,2012-03-05T20:30:00Z,30.2583,-88.2131,65.77,1111122 
DISL,ioos:station:DISL:KATA:1,2012-03-05T21:00:00Z,30.2583,-88.2131,64.11,1111122 
DISL,ioos:station:DISL:KATA:1,2012-03-05T21:30:00Z,30.2583,-88.2131,64.55,1111122 
DISL,ioos:station:DISL:KATA:1,2012-03-05T22:00:00Z,30.2583,-88.2131,64.54,1111122 
DISL,ioos:station:DISL:KATA:1,2012-03-05T22:30:00Z,30.2583,-88.2131,65.73,1111122 
DISL,ioos:station:DISL:KATA:1,2012-03-05T23:00:00Z,30.2583,-88.2131,68.92,1111122 
DISL,ioos:station:DISL:KATA:1,2012-03-05T23:30:00Z,30.2583,-88.2131,71.12,1111122 
DISL,ioos:station:DISL:KATA:1,2012-03-06T00:00:00Z,30.2583,-88.2131,74.8,1111122 
DISL,ioos:station:DISL:KATA:1,2012-03-06T00:30:00Z,30.2583,-88.2131,76.23,1111122 
DISL,ioos:station:DISL:KATA:1,2012-03-06T01:00:00Z,30.2583,-88.2131,79.33,1111122 
DISL,ioos:station:DISL:KATA:1,2012-03-06T01:30:00Z,30.2583,-88.2131,80.0,1111122 
DISL,ioos:station:DISL:KATA:1,2012-03-06T02:00:00Z,30.2583,-88.2131,75.42,1111122 
DISL,ioos:station:DISL:KATA:1,2012-03-06T02:30:00Z,30.2583,-88.2131,79.23,1111122 
DISL,ioos:station:DISL:KATA:1,2012-03-06T03:00:00Z,30.2583,-88.2131,80.9,1111122 
DISL,ioos:station:DISL:KATA:1,2012-03-06T03:30:00Z,30.2583,-88.2131,82.2,1111122 
DISL,ioos:station:DISL:KATA:1,2012-03-06T04:00:00Z,30.2583,-88.2131,62.63,1111122 
DISL,ioos:station:DISL:KATA:1,2012-03-06T04:30:00Z,30.2583,-88.2131,45.55,1111122 
DISL,ioos:station:DISL:KATA:1,2012-03-06T05:00:00Z,30.2583,-88.2131,42.94,1111122 
DISL,ioos:station:DISL:KATA:1,2012-03-06T05:30:00Z,30.2583,-88.2131,35.74,1111122 
DISL,ioos:station:DISL:KATA:1,2012-03-06T06:00:00Z,30.2583,-88.2131,44.3,1111122 
DISL,ioos:station:DISL:KATA:1,2012-03-06T06:30:00Z,30.2583,-88.2131,44.47,1111122 
DISL,ioos:station:DISL:KATA:1,2012-03-06T07:00:00Z,30.2583,-88.2131,42.06,1111122 
DISL,ioos:station:DISL:KATA:1,2012-03-06T07:30:00Z,30.2583,-88.2131,39.27,1111122 
DISL,ioos:station:DISL:KATA:1,2012-03-06T08:00:00Z,30.2583,-88.2131,43.42,1111122 
DISL,ioos:station:DISL:KATA:1,2012-03-06T08:30:00Z,30.2583,-88.2131,44.17,1111122 
DISL,ioos:station:DISL:KATA:1,2012-03-06T09:00:00Z,30.2583,-88.2131,46.96,1111122 
DISL,ioos:station:DISL:KATA:1,2012-03-06T09:30:00Z,30.2583,-88.2131,44.11,1111122 
DISL,ioos:station:DISL:KATA:1,2012-03-06T10:00:00Z,30.2583,-88.2131,50.7,1111122 
DISL,ioos:station:DISL:KATA:1,2012-03-06T10:30:00Z,30.2583,-88.2131,51.07,1111122 
DISL,ioos:station:DISL:KATA:1,2012-03-06T11:00:00Z,30.2583,-88.2131,57.05,1111122 
DISL,ioos:station:DISL:KATA:1,2012-03-06T11:30:00Z,30.2583,-88.2131,62.82,1111122 
DISL,ioos:station:DISL:KATA:1,2012-03-06T12:00:00Z,30.2583,-88.2131,63.02,1111122 
DISL,ioos:station:DISL:KATA:1,2012-03-06T12:30:00Z,30.2583,-88.2131,63.23,1111122 
DISL,ioos:station:DISL:KATA:1,2012-03-06T13:00:00Z,30.2583,-88.2131,65.09,1111122 
DISL,ioos:station:DISL:KATA:1,2012-03-06T13:30:00Z,30.2583,-88.2131,66.11,1111122 
DISL,ioos:station:DISL:KATA:1,2012-03-06T14:00:00Z,30.2583,-88.2131,65.7,1111122 
DISL,ioos:station:DISL:KATA:1,2012-03-06T14:30:00Z,30.2583,-88.2131,59.0,1111122 
DISL,ioos:station:DISL:KATA:1,2012-03-06T15:00:00Z,30.2583,-88.2131,58.66,1111122 
DISL,ioos:station:DISL:KATA:1,2012-03-06T15:30:00Z,30.2583,-88.2131,60.62,1111122 
DISL,ioos:station:DISL:KATA:1,2012-03-06T16:00:00Z,30.2583,-88.2131,60.93,1111122 
DISL,ioos:station:DISL:KATA:1,2012-03-06T16:30:00Z,30.2583,-88.2131,59.87,1111122 
DISL,ioos:station:DISL:KATA:1,2012-03-06T17:00:00Z,30.2583,-88.2131,59.7,1111122 
DISL,ioos:station:DISL:KATA:1,2012-03-06T17:30:00Z,30.2583,-88.2131,60.51,1111122 
DISL,ioos:station:DISL:KATA:1,2012-03-06T18:00:00Z,30.2583,-88.2131,62.68,1111122 
DISL,ioos:station:DISL:KATA:1,2012-03-06T18:30:00Z,30.2583,-88.2131,67.74,1111122 
DISL,ioos:station:DISL:KATA:1,2012-03-06T19:00:00Z,30.2583,-88.2131,69.91,1111122 
DISL,ioos:station:DISL:KATA:1,2012-03-06T19:30:00Z,30.2583,-88.2131,65.33,1111122 
DISL,ioos:station:DISL:KATA:1,2012-03-06T20:00:00Z,30.2583,-88.2131,67.74,1111122 
DISL,ioos:station:DISL:KATA:1,2012-03-06T20:30:00Z,30.2583,-88.2131,68.42,1111122 
DISL,ioos:station:DISL:KATA:1,2012-03-06T21:00:00Z,30.2583,-88.2131,72.53,1111122 
DISL,ioos:station:DISL:KATA:1,2012-03-06T21:30:00Z,30.2583,-88.2131,73.38,1111122 
DISL,ioos:station:DISL:KATA:1,2012-03-06T22:00:00Z,30.2583,-88.2131,74.66,1111122 
DISL,ioos:station:DISL:KATA:1,2012-03-06T22:30:00Z,30.2583,-88.2131,75.41,1111122 
DISL,ioos:station:DISL:KATA:1,2012-03-06T23:00:00Z,30.2583,-88.2131,76.36,1111122 
DISL,ioos:station:DISL:KATA:1,2012-03-06T23:30:00Z,30.2583,-88.2131,78.47,1111122 
DISL,ioos:station:DISL:KATA:1,2012-03-07T00:00:00Z,30.2583,-88.2131,77.73,1111122 
DISL,ioos:station:DISL:KATA:1,2012-03-07T00:30:00Z,30.2583,-88.2131,78.55,1111122 